| time (UTC) | temp F | wind direction | speed MPH | gust MPH | rain 1hr in | rain 24hr in | rain mn in | humidity % | barometer mb |
| 20260505193921 | 52 | 355 | 6.0 | 11.0 | 0.00 | 0.00 | 0.00 | 78 | 1009.9 |
| 20260505193653 | 52 | 324 | 6.0 | 10.0 | 0.00 | 0.00 | 0.00 | 77 | 1009.7 |
| 20260505192921 | 52 | 42 | 6.0 | 10.0 | 0.00 | 0.00 | 0.00 | 77 | 1009.8 |
| 20260505192419 | 52 | 344 | 7.0 | 14.0 | 0.00 | 0.00 | 0.00 | 77 | 1009.8 |
| 20260505191920 | 53 | 350 | 7.0 | 14.0 | 0.00 | 0.00 | 0.00 | 76 | 1009.7 |
| 20260505191420 | 53 | 325 | 7.0 | 14.0 | 0.00 | 0.00 | 0.00 | 76 | 1009.8 |
| 20260505190920 | 53 | 355 | 7.0 | 13.0 | 0.00 | 0.00 | 0.00 | 76 | 1009.7 |
| 20260505190421 | 53 | 0 | 7.0 | 13.0 | 0.00 | 0.00 | 0.00 | 76 | 1009.7 |
| 20260505190152 | 53 | 322 | 7.0 | 13.0 | 0.00 | 0.00 | 0.00 | 76 | 1009.5 |
| 20260505185649 | 53 | 53 | 7.0 | 13.0 | 0.00 | 0.00 | 0.00 | 76 | 1009.5 |
| 20260505184917 | 53 | 342 | 7.0 | 14.0 | 0.00 | 0.00 | 0.00 | 76 | 1009.3 |
| 20260505184419 | 54 | 332 | 7.0 | 14.0 | 0.00 | 0.00 | 0.00 | 75 | 1009.4 |
| 20260505183917 | 54 | 313 | 8.0 | 15.0 | 0.00 | 0.00 | 0.00 | 75 | 1009.3 |
| 20260505183420 | 54 | 17 | 8.0 | 15.0 | 0.00 | 0.00 | 0.00 | 75 | 1009.3 |
| 20260505182917 | 54 | 319 | 8.0 | 14.0 | 0.00 | 0.00 | 0.00 | 74 | 1009.3 |
| 20260505182418 | 54 | 327 | 8.0 | 16.0 | 0.00 | 0.00 | 0.00 | 74 | 1009.3 |
| 20260505181919 | 55 | 0 | 9.0 | 16.0 | 0.00 | 0.00 | 0.00 | 74 | 1009.2 |
| 20260505181418 | 55 | 350 | 8.0 | 17.0 | 0.00 | 0.00 | 0.00 | 73 | 1009.2 |
| 20260505181150 | 55 | 335 | 8.0 | 17.0 | 0.00 | 0.00 | 0.00 | 72 | 1009.1 |
| 20260505180417 | 55 | 292 | 8.0 | 13.0 | 0.00 | 0.00 | 0.00 | 73 | 1009.1 |
| 20260505180151 | 55 | 319 | 9.0 | 15.0 | 0.00 | 0.00 | 0.00 | 72 | 1009.1 |
| 20260505175414 | 56 | 345 | 9.0 | 15.0 | 0.00 | 0.00 | 0.00 | 71 | 1009.1 |
| 20260505174913 | 56 | 355 | 9.0 | 14.0 | 0.00 | 0.00 | 0.00 | 71 | 1009.2 |
| 20260505174412 | 56 | 342 | 9.0 | 16.0 | 0.00 | 0.00 | 0.00 | 71 | 1009.1 |
| 20260505173912 | 56 | 335 | 9.0 | 16.0 | 0.00 | 0.00 | 0.00 | 71 | 1009.1 |
| 20260505173411 | 56 | 344 | 10.0 | 18.0 | 0.00 | 0.00 | 0.00 | 70 | 1009.1 |
| 20260505172910 | 56 | 327 | 10.0 | 18.0 | 0.00 | 0.00 | 0.00 | 70 | 1009.0 |
| 20260505172411 | 57 | 29 | 9.0 | 19.0 | 0.00 | 0.00 | 0.00 | 70 | 1009.1 |
| 20260505171908 | 57 | 5 | 9.0 | 19.0 | 0.00 | 0.00 | 0.00 | 69 | 1009.2 |
| 20260505171408 | 57 | 345 | 9.0 | 17.0 | 0.00 | 0.00 | 0.00 | 70 | 1009.2 |
| 20260505170908 | 57 | 11 | 10.0 | 16.0 | 0.00 | 0.00 | 0.00 | 69 | 1009.2 |
| 20260505170410 | 58 | 321 | 10.0 | 16.0 | 0.00 | 0.00 | 0.00 | 69 | 1009.2 |
| 20260505165910 | 58 | 0 | 8.0 | 17.0 | 0.00 | 0.00 | 0.00 | 68 | 1009.2 |
| 20260505165359 | 58 | 17 | 8.0 | 17.0 | 0.00 | 0.00 | 0.00 | 68 | 1009.3 |
| 20260505165133 | 58 | 346 | 8.0 | 15.0 | 0.00 | 0.00 | 0.00 | 69 | 1009.3 |
| 20260505164354 | 58 | 329 | 8.0 | 16.0 | 0.00 | 0.00 | 0.00 | 69 | 1009.4 |
| 20260505164127 | 59 | 291 | 8.0 | 17.0 | 0.00 | 0.00 | 0.00 | 69 | 1009.4 |
| 20260505163628 | 59 | 319 | 8.0 | 17.0 | 0.00 | 0.00 | 0.00 | 69 | 1009.4 |
| 20260505163126 | 59 | 0 | 8.0 | 17.0 | 0.00 | 0.00 | 0.00 | 69 | 1009.4 |
| 20260505162355 | 59 | 16 | 8.0 | 17.0 | 0.00 | 0.00 | 0.00 | 68 | 1009.3 |
| 20260505162124 | 59 | 31 | 8.0 | 16.0 | 0.00 | 0.00 | 0.00 | 69 | 1009.5 |
| 20260505161354 | 59 | 327 | 9.0 | 16.0 | 0.00 | 0.00 | 0.00 | 68 | 1009.5 |
| 20260505160855 | 59 | 337 | 8.0 | 16.0 | 0.00 | 0.00 | 0.00 | 69 | 1009.4 |
| 20260505160353 | 59 | 0 | 8.0 | 16.0 | 0.00 | 0.00 | 0.00 | 70 | 1009.4 |
| 20260505153351 | 59 | 316 | 6.0 | 15.0 | 0.00 | 0.00 | 0.00 | 70 | 1009.5 |
| 20260505152351 | 59 | 333 | 6.0 | 12.0 | 0.00 | 0.00 | 0.00 | 71 | 1009.5 |
| 20260505151849 | 59 | 0 | 5.0 | 12.0 | 0.00 | 0.00 | 0.00 | 72 | 1009.6 |
| 20260505151350 | 59 | 22 | 6.0 | 12.0 | 0.00 | 0.00 | 0.00 | 72 | 1009.6 |
| 20260505150849 | 59 | 355 | 5.0 | 12.0 | 0.00 | 0.00 | 0.00 | 71 | 1009.6 |
| 20260505150405 | 59 | 317 | 4.0 | 8.0 | 0.00 | 0.00 | 0.00 | 73 | 1009.5 |
| 20260505150121 | 59 | 52 | 4.0 | 8.0 | 0.00 | 0.00 | 0.00 | 74 | 1009.6 |
| 20260505140341 | 58 | 5 | 5.0 | 11.0 | 0.00 | 0.00 | 0.00 | 73 | 1009.9 |
| 20260505140111 | 58 | 339 | 5.0 | 11.0 | 0.00 | 0.00 | 0.00 | 74 | 1010.1 |
| 20260505124829 | 55 | 41 | 5.0 | 11.0 | 0.00 | 0.00 | 0.00 | 79 | 1010.7 |
| 20260505124329 | 55 | 42 | 4.0 | 10.0 | 0.00 | 0.00 | 0.00 | 80 | 1010.7 |
| 20260505123831 | 55 | 54 | 6.0 | 10.0 | 0.00 | 0.00 | 0.00 | 80 | 1010.6 |
| 20260505123343 | 55 | 62 | 5.0 | 10.0 | 0.00 | 0.00 | 0.00 | 80 | 1010.6 |
| 20260505122827 | 55 | 37 | 4.0 | 10.0 | 0.00 | 0.00 | 0.00 | 80 | 1010.6 |
| 20260505122321 | 55 | 19 | 4.0 | 11.0 | 0.00 | 0.00 | 0.00 | 80 | 1010.6 |
| 20260505121820 | 55 | 76 | 5.0 | 12.0 | 0.00 | 0.00 | 0.00 | 80 | 1010.7 |
| 20260505121319 | 55 | 309 | 5.0 | 12.0 | 0.00 | 0.00 | 0.00 | 80 | 1010.7 |
| 20260505121050 | 54 | 39 | 5.0 | 11.0 | 0.00 | 0.00 | 0.00 | 80 | 1010.7 |
| 20260505120334 | 55 | 350 | 6.0 | 11.0 | 0.00 | 0.00 | 0.00 | 80 | 1010.7 |
| 20260505115819 | 55 | 63 | 5.0 | 10.0 | 0.00 | 0.00 | 0.00 | 80 | 1010.7 |
| 20260505115319 | 55 | 309 | 5.0 | 11.0 | 0.00 | 0.00 | 0.00 | 80 | 1010.8 |
| 20260505114820 | 54 | 341 | 5.0 | 11.0 | 0.00 | 0.00 | 0.00 | 80 | 1010.7 |
| 20260505114319 | 54 | 40 | 5.0 | 11.0 | 0.00 | 0.00 | 0.00 | 81 | 1010.9 |
| 20260505113819 | 54 | 44 | 6.0 | 13.0 | 0.00 | 0.00 | 0.00 | 80 | 1010.9 |
| 20260505113550 | 54 | 25 | 5.0 | 13.0 | 0.00 | 0.00 | 0.00 | 80 | 1010.9 |
| 20260505112819 | 54 | 336 | 4.0 | 11.0 | 0.00 | 0.00 | 0.00 | 81 | 1010.9 |
| 20260505112319 | 54 | 340 | 6.0 | 11.0 | 0.00 | 0.00 | 0.00 | 81 | 1010.8 |
| 20260505111819 | 54 | 348 | 6.0 | 11.0 | 0.00 | 0.00 | 0.00 | 81 | 1010.8 |
| 20260505111318 | 54 | 0 | 5.0 | 11.0 | 0.00 | 0.00 | 0.00 | 81 | 1010.8 |
| 20260505110818 | 54 | 49 | 5.0 | 11.0 | 0.00 | 0.00 | 0.00 | 81 | 1010.9 |
| 20260505110550 | 54 | 300 | 6.0 | 11.0 | 0.00 | 0.00 | 0.00 | 81 | 1010.8 |
| 20260505101814 | 53 | 24 | 5.0 | 12.0 | 0.00 | 0.00 | 0.00 | 82 | 1011.2 |
| 20260505101312 | 53 | 312 | 5.0 | 12.0 | 0.00 | 0.00 | 0.00 | 82 | 1011.2 |
| 20260505100811 | 53 | 43 | 5.0 | 10.0 | 0.00 | 0.00 | 0.00 | 82 | 1011.2 |
| 20260505100311 | 53 | 58 | 5.0 | 10.0 | 0.00 | 0.00 | 0.00 | 82 | 1011.2 |
| 20260505095811 | 53 | 37 | 5.0 | 11.0 | 0.00 | 0.00 | 0.00 | 82 | 1011.3 |
| 20260505095311 | 53 | 34 | 5.0 | 12.0 | 0.00 | 0.00 | 0.00 | 82 | 1011.4 |
| 20260505095044 | 53 | 41 | 5.0 | 12.0 | 0.00 | 0.00 | 0.00 | 82 | 1011.4 |
| 20260505094311 | 53 | 349 | 5.0 | 13.0 | 0.00 | 0.00 | 0.00 | 83 | 1011.3 |
| 20260505093812 | 53 | 17 | 6.0 | 13.0 | 0.00 | 0.00 | 0.00 | 82 | 1011.3 |
| 20260505093310 | 53 | 24 | 6.0 | 11.0 | 0.00 | 0.00 | 0.00 | 82 | 1011.4 |
| 20260505092812 | 53 | 283 | 5.0 | 11.0 | 0.00 | 0.00 | 0.00 | 83 | 1011.5 |
| 20260505092312 | 53 | 67 | 5.0 | 11.0 | 0.00 | 0.00 | 0.00 | 83 | 1011.5 |
| 20260505091811 | 52 | 326 | 5.0 | 10.0 | 0.00 | 0.00 | 0.00 | 83 | 1011.6 |
| 20260505091311 | 52 | 22 | 4.0 | 10.0 | 0.00 | 0.00 | 0.00 | 83 | 1011.6 |
| 20260505090808 | 52 | 349 | 4.0 | 9.0 | 0.00 | 0.00 | 0.00 | 83 | 1011.7 |
| 20260505090307 | 52 | 31 | 5.0 | 13.0 | 0.00 | 0.00 | 0.00 | 83 | 1011.7 |
| 20260505085809 | 52 | 45 | 6.0 | 13.0 | 0.00 | 0.00 | 0.00 | 83 | 1011.6 |
| 20260505085309 | 52 | 37 | 5.0 | 13.0 | 0.00 | 0.00 | 0.00 | 83 | 1011.6 |
| 20260505085038 | 52 | 340 | 6.0 | 12.0 | 0.00 | 0.00 | 0.00 | 84 | 1011.6 |
| 20260505084307 | 52 | 331 | 7.0 | 13.0 | 0.00 | 0.00 | 0.00 | 84 | 1011.6 |
| 20260505083809 | 52 | 46 | 7.0 | 13.0 | 0.00 | 0.00 | 0.00 | 84 | 1011.5 |
| 20260505083307 | 52 | 76 | 7.0 | 14.0 | 0.00 | 0.00 | 0.00 | 84 | 1011.4 |
| 20260505082812 | 52 | 41 | 6.0 | 14.0 | 0.00 | 0.00 | 0.00 | 84 | 1011.5 |
| 20260505082309 | 52 | 38 | 6.0 | 13.0 | 0.00 | 0.00 | 0.00 | 85 | 1011.4 |
| 20260505081807 | 51 | 24 | 6.0 | 14.0 | 0.00 | 0.00 | 0.00 | 85 | 1011.3 |
| 20260505081538 | 51 | 297 | 6.0 | 14.0 | 0.00 | 0.00 | 0.00 | 85 | 1011.4 |
| 20260505080806 | 51 | 17 | 6.0 | 12.0 | 0.00 | 0.00 | 0.00 | 85 | 1011.4 |
| 20260505080307 | 51 | 323 | 6.0 | 12.0 | 0.00 | 0.00 | 0.00 | 85 | 1011.4 |
| 20260505075806 | 51 | 42 | 5.0 | 12.0 | 0.00 | 0.00 | 0.00 | 85 | 1011.5 |
| 20260505075307 | 51 | 348 | 5.0 | 15.0 | 0.00 | 0.00 | 0.00 | 85 | 1011.4 |
| 20260505074807 | 51 | 348 | 6.0 | 15.0 | 0.00 | 0.00 | 0.00 | 85 | 1011.4 |
| 20260505074307 | 51 | 346 | 7.0 | 13.0 | 0.00 | 0.00 | 0.00 | 85 | 1011.4 |
| 20260505073807 | 51 | 324 | 6.0 | 12.0 | 0.00 | 0.00 | 0.00 | 85 | 1011.5 |
| 20260505073539 | 51 | 334 | 7.0 | 14.0 | 0.00 | 0.00 | 0.00 | 85 | 1011.5 |
| 20260505072800 | 51 | 355 | 7.0 | 14.0 | 0.00 | 0.00 | 0.00 | 85 | 1011.5 |
| 20260505072300 | 51 | 306 | 6.0 | 12.0 | 0.00 | 0.00 | 0.00 | 86 | 1011.4 |
| 20260505071800 | 51 | 343 | 6.0 | 11.0 | 0.00 | 0.00 | 0.00 | 86 | 1011.4 |
| 20260505071031 | 51 | 332 | 5.0 | 11.0 | 0.00 | 0.00 | 0.00 | 87 | 1011.3 |
| 20260505070258 | 51 | 315 | 5.0 | 11.0 | 0.00 | 0.00 | 0.00 | 87 | 1011.6 |
| 20260505065758 | 51 | 332 | 6.0 | 11.0 | 0.00 | 0.00 | 0.00 | 87 | 1011.6 |
| 20260505065258 | 51 | 314 | 6.0 | 12.0 | 0.00 | 0.00 | 0.00 | 87 | 1011.6 |
| 20260505065029 | 50 | 338 | 6.0 | 12.0 | 0.00 | 0.00 | 0.00 | 88 | 1011.6 |
| 20260505064529 | 50 | 36 | 5.0 | 11.0 | 0.00 | 0.00 | 0.00 | 88 | 1011.6 |
| 20260505063759 | 50 | 345 | 5.0 | 9.0 | 0.00 | 0.00 | 0.00 | 88 | 1011.7 |
| 20260505063300 | 50 | 340 | 6.0 | 14.0 | 0.00 | 0.00 | 0.00 | 88 | 1011.7 |
| 20260505062758 | 50 | 5 | 5.0 | 14.0 | 0.00 | 0.00 | 0.00 | 88 | 1011.7 |
| 20260505062526 | 50 | 55 | 4.0 | 10.0 | 0.00 | 0.00 | 0.00 | 89 | 1011.7 |
| 20260505061746 | 50 | 285 | 5.0 | 11.0 | 0.00 | 0.00 | 0.00 | 89 | 1011.8 |
| 20260505061244 | 50 | 42 | 4.0 | 11.0 | 0.00 | 0.00 | 0.00 | 89 | 1011.8 |
| 20260505061018 | 50 | 22 | 4.0 | 9.0 | 0.00 | 0.00 | 0.00 | 89 | 1011.8 |
| 20260505060244 | 50 | 310 | 5.0 | 10.0 | 0.00 | 0.00 | 0.00 | 89 | 1011.9 |
| 20260505055746 | 50 | 20 | 5.0 | 10.0 | 0.00 | 0.00 | 0.00 | 89 | 1011.9 |
| 20260505055245 | 50 | 340 | 4.0 | 9.0 | 0.00 | 0.00 | 0.00 | 89 | 1012.0 |
| 20260505054746 | 50 | 315 | 4.0 | 11.0 | 0.00 | 0.00 | 0.00 | 89 | 1011.9 |
| 20260505054517 | 50 | 336 | 4.0 | 11.0 | 0.00 | 0.00 | 0.00 | 89 | 1012.0 |
| 20260505053746 | 50 | 321 | 4.0 | 10.0 | 0.00 | 0.00 | 0.00 | 89 | 1011.9 |
| 20260505053244 | 50 | 344 | 4.0 | 10.0 | 0.00 | 0.00 | 0.00 | 89 | 1011.9 |
| 20260505052746 | 50 | 40 | 3.0 | 8.0 | 0.00 | 0.00 | 0.00 | 89 | 1011.9 |
| 20260505052515 | 50 | 322 | 4.0 | 8.0 | 0.00 | 0.00 | 0.00 | 89 | 1011.9 |
| 20260505051747 | 50 | 0 | 4.0 | 8.0 | 0.00 | 0.00 | 0.00 | 89 | 1011.8 |
| 20260505051244 | 50 | 43 | 5.0 | 11.0 | 0.00 | 0.00 | 0.00 | 89 | 1011.7 |
| 20260505050744 | 50 | 22 | 5.0 | 11.0 | 0.00 | 0.00 | 0.00 | 89 | 1011.6 |
| 20260505050246 | 50 | 338 | 4.0 | 12.0 | 0.00 | 0.00 | 0.00 | 89 | 1011.6 |
| 20260505041240 | 51 | 14 | 5.0 | 10.0 | 0.00 | 0.00 | 0.00 | 88 | 1011.3 |
| 20260505040734 | 51 | 31 | 5.0 | 10.0 | 0.00 | 0.00 | 0.00 | 88 | 1011.4 |
| 20260505040228 | 51 | 326 | 4.0 | 9.0 | 0.00 | 0.00 | 0.00 | 88 | 1011.4 |
| 20260505035724 | 51 | 304 | 4.0 | 12.0 | 0.00 | 0.00 | 0.00 | 88 | 1011.2 |
| 20260505035227 | 51 | 328 | 4.0 | 12.0 | 0.00 | 0.00 | 0.00 | 88 | 1011.4 |
| 20260505034726 | 51 | 313 | 4.0 | 9.0 | 0.00 | 0.00 | 0.00 | 88 | 1011.4 |
| 20260505034223 | 51 | 333 | 4.0 | 11.0 | 0.00 | 0.00 | 0.00 | 88 | 1011.5 |
| 20260505033724 | 51 | 17 | 4.0 | 11.0 | 0.00 | 0.00 | 0.00 | 88 | 1011.4 |
| 20260505033221 | 51 | 355 | 5.0 | 10.0 | 0.00 | 0.00 | 0.00 | 88 | 1011.5 |
| 20260505032723 | 51 | 325 | 5.0 | 10.0 | 0.00 | 0.00 | 0.00 | 88 | 1011.6 |
| 20260505032453 | 51 | 10 | 5.0 | 9.0 | 0.00 | 0.00 | 0.00 | 88 | 1011.7 |
| 20260505031722 | 51 | 327 | 5.0 | 9.0 | 0.00 | 0.00 | 0.00 | 88 | 1011.6 |
| 20260505031223 | 51 | 0 | 5.0 | 9.0 | 0.00 | 0.00 | 0.00 | 88 | 1011.7 |
| 20260505030722 | 51 | 342 | 4.0 | 9.0 | 0.00 | 0.00 | 0.00 | 88 | 1011.6 |
| 20260505030222 | 51 | 311 | 4.0 | 9.0 | 0.00 | 0.00 | 0.00 | 88 | 1011.6 |
| 20260505025722 | 51 | 340 | 4.0 | 11.0 | 0.00 | 0.00 | 0.00 | 88 | 1011.6 |
| 20260505025449 | 51 | 319 | 5.0 | 12.0 | 0.00 | 0.00 | 0.00 | 88 | 1011.6 |
| 20260505024220 | 51 | 347 | 6.0 | 11.0 | 0.00 | 0.00 | 0.00 | 88 | 1011.6 |
| 20260505023718 | 51 | 38 | 7.0 | 12.0 | 0.00 | 0.00 | 0.00 | 87 | 1011.6 |
| 20260505023217 | 51 | 72 | 6.0 | 12.0 | 0.00 | 0.00 | 0.00 | 87 | 1011.7 |
| 20260505022719 | 52 | 350 | 6.0 | 12.0 | 0.00 | 0.00 | 0.00 | 87 | 1011.7 |
| 20260505022218 | 52 | 355 | 6.0 | 12.0 | 0.00 | 0.00 | 0.00 | 87 | 1011.6 |
| 20260505021719 | 52 | 5 | 7.0 | 12.0 | 0.00 | 0.00 | 0.00 | 87 | 1011.7 |
| 20260505021219 | 52 | 9 | 7.0 | 13.0 | 0.00 | 0.00 | 0.00 | 87 | 1011.7 |
| 20260505020718 | 52 | 337 | 7.0 | 13.0 | 0.00 | 0.00 | 0.00 | 87 | 1011.7 |
| 20260505020215 | 52 | 15 | 7.0 | 13.0 | 0.00 | 0.00 | 0.00 | 87 | 1011.7 |
| 20260505015948 | 52 | 311 | 7.0 | 13.0 | 0.00 | 0.00 | 0.00 | 87 | 1011.6 |
| 20260505015209 | 52 | 0 | 7.0 | 13.0 | 0.00 | 0.00 | 0.00 | 87 | 1011.7 |
| 20260505014703 | 52 | 350 | 7.0 | 13.0 | 0.00 | 0.00 | 0.00 | 87 | 1011.7 |
| 20260505014200 | 52 | 299 | 7.0 | 12.0 | 0.00 | 0.00 | 0.00 | 87 | 1011.6 |
| 20260505013931 | 52 | 317 | 7.0 | 13.0 | 0.00 | 0.00 | 0.00 | 87 | 1011.7 |
| 20260505013202 | 52 | 314 | 8.0 | 13.0 | 0.00 | 0.00 | 0.00 | 87 | 1011.8 |
| 20260505012659 | 52 | 332 | 8.0 | 16.0 | 0.00 | 0.00 | 0.00 | 87 | 1011.8 |
| 20260505012201 | 52 | 355 | 8.0 | 16.0 | 0.00 | 0.00 | 0.00 | 87 | 1011.9 |
| 20260505011930 | 53 | 350 | 7.0 | 14.0 | 0.00 | 0.00 | 0.00 | 87 | 1011.9 |
| 20260505011201 | 53 | 336 | 6.0 | 14.0 | 0.00 | 0.01 | 0.00 | 87 | 1011.9 |
| 20260505010931 | 53 | 340 | 6.0 | 13.0 | 0.00 | 0.01 | 0.00 | 87 | 1011.9 |
| 20260505010200 | 53 | 347 | 7.0 | 13.0 | 0.00 | 0.01 | 0.00 | 87 | 1012.0 |
| 20260505005659 | 53 | 297 | 7.0 | 14.0 | 0.00 | 0.01 | 0.00 | 87 | 1012.1 |
| 20260505005157 | 53 | 318 | 7.0 | 14.0 | 0.00 | 0.01 | 0.00 | 87 | 1012.1 |
| 20260505004658 | 53 | 334 | 6.0 | 11.0 | 0.00 | 0.01 | 0.00 | 87 | 1012.2 |
| 20260505004157 | 53 | 326 | 7.0 | 13.0 | 0.00 | 0.01 | 0.00 | 87 | 1012.1 |
| 20260505003656 | 53 | 23 | 8.0 | 14.0 | 0.00 | 0.01 | 0.00 | 87 | 1012.0 |
| 20260505003156 | 53 | 333 | 8.0 | 14.0 | 0.00 | 0.01 | 0.00 | 87 | 1012.1 |
| 20260505002657 | 53 | 346 | 7.0 | 14.0 | 0.00 | 0.01 | 0.00 | 86 | 1012.1 |
| 20260505002156 | 54 | 355 | 7.0 | 13.0 | 0.00 | 0.01 | 0.00 | 86 | 1012.1 |
| 20260505001929 | 54 | 328 | 7.0 | 14.0 | 0.00 | 0.01 | 0.00 | 86 | 1012.2 |
| 20260505001159 | 54 | 350 | 8.0 | 14.0 | 0.00 | 0.01 | 0.00 | 86 | 1012.3 |
| 20260505000654 | 54 | 351 | 8.0 | 14.0 | 0.00 | 0.01 | 0.00 | 87 | 1012.2 |
| 20260505000153 | 54 | 329 | 8.0 | 14.0 | 0.00 | 0.01 | 0.00 | 87 | 1012.3 |
| 20260504235654 | 54 | 338 | 7.0 | 14.0 | 0.00 | 0.01 | 0.00 | 87 | 1012.3 |
| 20260504235154 | 54 | 22 | 8.0 | 15.0 | 0.00 | 0.01 | 0.00 | 87 | 1012.3 |
| 20260504234655 | 54 | 355 | 8.0 | 15.0 | 0.00 | 0.01 | 0.00 | 87 | 1012.3 |
| 20260504234425 | 54 | 28 | 7.0 | 15.0 | 0.00 | 0.01 | 0.00 | 87 | 1012.4 |
| 20260504233925 | 54 | 326 | 7.0 | 15.0 | 0.00 | 0.01 | 0.00 | 87 | 1012.4 |
| 20260504233151 | 54 | 325 | 7.0 | 15.0 | 0.00 | 0.01 | 0.00 | 87 | 1012.5 |
| 20260504232647 | 54 | 0 | 7.0 | 15.0 | 0.00 | 0.01 | 0.00 | 87 | 1012.4 |
| 20260504232145 | 55 | 297 | 8.0 | 14.0 | 0.00 | 0.01 | 0.00 | 87 | 1012.5 |
| 20260504231914 | 55 | 344 | 7.0 | 14.0 | 0.00 | 0.01 | 0.00 | 87 | 1012.5 |
| 20260504231139 | 55 | 15 | 8.0 | 15.0 | 0.00 | 0.01 | 0.00 | 87 | 1012.5 |
| 20260504230640 | 55 | 321 | 8.0 | 15.0 | 0.00 | 0.01 | 0.00 | 87 | 1012.6 |
| 20260504230139 | 55 | 355 | 6.0 | 11.0 | 0.00 | 0.01 | 0.00 | 87 | 1012.5 |
| 20260504225637 | 55 | 344 | 6.0 | 12.0 | 0.00 | 0.01 | 0.00 | 87 | 1012.5 |
| 20260504225137 | 55 | 346 | 5.0 | 12.0 | 0.00 | 0.01 | 0.00 | 87 | 1012.6 |
| 20260504224637 | 55 | 342 | 6.0 | 12.0 | 0.00 | 0.01 | 0.00 | 87 | 1012.6 |
| 20260504224134 | 55 | 39 | 6.0 | 12.0 | 0.00 | 0.01 | 0.00 | 87 | 1012.7 |
| 20260504223628 | 55 | 330 | 6.0 | 12.0 | 0.00 | 0.01 | 0.00 | 87 | 1012.7 |
| 20260504223127 | 55 | 53 | 6.0 | 12.0 | 0.00 | 0.01 | 0.00 | 87 | 1012.7 |
| 20260504222633 | 55 | 14 | 7.0 | 12.0 | 0.00 | 0.01 | 0.00 | 87 | 1012.6 |
| 20260504222128 | 55 | 333 | 6.0 | 12.0 | 0.00 | 0.01 | 0.00 | 87 | 1012.7 |
| 20260504221627 | 55 | 336 | 6.0 | 12.0 | 0.00 | 0.01 | 0.00 | 87 | 1012.8 |
| 20260504221129 | 56 | 5 | 6.0 | 12.0 | 0.00 | 0.01 | 0.00 | 87 | 1012.8 |
| 20260504220627 | 56 | 0 | 6.0 | 11.0 | 0.00 | 0.01 | 0.00 | 87 | 1012.8 |
| 20260504220127 | 56 | 328 | 6.0 | 11.0 | 0.00 | 0.01 | 0.00 | 87 | 1012.8 |
| 20260504215627 | 56 | 332 | 7.0 | 11.0 | 0.00 | 0.01 | 0.01 | 87 | 1012.8 |
| 20260504215359 | 56 | 0 | 6.0 | 11.0 | 0.00 | 0.01 | 0.01 | 86 | 1012.9 |
| 20260504214858 | 56 | 5 | 6.0 | 10.0 | 0.00 | 0.01 | 0.01 | 86 | 1012.9 |
| 20260504214126 | 56 | 349 | 6.0 | 13.0 | 0.00 | 0.01 | 0.01 | 86 | 1012.9 |
| 20260504213625 | 56 | 0 | 7.0 | 13.0 | 0.00 | 0.01 | 0.01 | 86 | 1012.8 |
| 20260504213125 | 56 | 339 | 6.0 | 13.0 | 0.00 | 0.01 | 0.01 | 87 | 1012.9 |
| 20260504212626 | 56 | 355 | 7.0 | 13.0 | 0.00 | 0.01 | 0.01 | 87 | 1012.9 |
| 20260504212125 | 56 | 317 | 7.0 | 11.0 | 0.00 | 0.01 | 0.01 | 87 | 1012.9 |
| 20260504211856 | 56 | 325 | 7.0 | 13.0 | 0.00 | 0.01 | 0.01 | 87 | 1013.1 |
| 20260504211356 | 56 | 346 | 6.0 | 13.0 | 0.00 | 0.01 | 0.01 | 87 | 1013.0 |
| 20260504210639 | 56 | 319 | 6.0 | 12.0 | 0.00 | 0.01 | 0.01 | 87 | 1013.1 |
| 20260504210120 | 56 | 0 | 7.0 | 12.0 | 0.00 | 0.01 | 0.01 | 87 | 1013.1 |
| 20260504205615 | 56 | 59 | 7.0 | 12.0 | 0.00 | 0.01 | 0.01 | 86 | 1013.0 |
| 20260504205116 | 56 | 300 | 7.0 | 12.0 | 0.00 | 0.01 | 0.01 | 86 | 1013.0 |
| 20260504204613 | 57 | 336 | 5.0 | 11.0 | 0.00 | 0.01 | 0.01 | 86 | 1013.1 |
| 20260504204111 | 57 | 337 | 5.0 | 10.0 | 0.00 | 0.01 | 0.01 | 86 | 1013.0 |
| 20260504203610 | 57 | 348 | 5.0 | 10.0 | 0.00 | 0.01 | 0.01 | 86 | 1013.1 |
| 20260504203110 | 57 | 318 | 5.0 | 11.0 | 0.00 | 0.01 | 0.01 | 86 | 1013.0 |
| 20260504202839 | 57 | 13 | 6.0 | 13.0 | 0.00 | 0.01 | 0.01 | 86 | 1013.1 |
| 20260504202106 | 57 | 11 | 6.0 | 13.0 | 0.00 | 0.01 | 0.01 | 86 | 1012.9 |
| 20260504201608 | 57 | 340 | 6.0 | 11.0 | 0.00 | 0.01 | 0.01 | 86 | 1013.0 |
| 20260504201111 | 57 | 22 | 5.0 | 10.0 | 0.00 | 0.01 | 0.01 | 86 | 1013.0 |
| 20260504200607 | 57 | 332 | 5.0 | 11.0 | 0.00 | 0.01 | 0.01 | 86 | 1012.8 |
| 20260504200340 | 57 | 326 | 6.0 | 14.0 | 0.00 | 0.01 | 0.01 | 86 | 1012.8 |
| 20260504195558 | 58 | 11 | 6.0 | 14.0 | 0.00 | 0.01 | 0.01 | 86 | 1012.8 |
| 20260504195055 | 58 | 336 | 6.0 | 14.0 | 0.00 | 0.01 | 0.01 | 85 | 1012.7 |